EW2027 Weather Reports


time (UTC)temp
C
wind
direction
speed
KPH
gust
KPH
rain 1hr
cm
rain 24hr
cm
rain mn
cm
humidity
%
barometer
mb
20260906200704 38 126 6.4 11.3 0.00 0.00 0.00 39 1014.3
20260906193704 38 104 8.0 14.5 0.00 0.00 0.00 41 1014.8
20260906193204 38 187 1.6 12.9 0.00 0.00 0.00 41 1014.8
20260906190703 37 193 3.2 8.0 0.00 0.00 0.00 42 1015.0
20260906183704 37 272 3.2 4.8 0.00 0.00 0.00 43 1015.5
20260906180703 37 123 1.6 9.7 0.00 0.00 0.00 43 1016.1
20260906180204 36 108 6.4 14.5 0.00 0.00 0.00 44 1016.3
20260906173704 36 122 4.8 11.3 0.00 0.00 0.00 45 1016.7
20260906173204 36 143 3.2 9.7 0.00 0.00 0.00 47 1016.8
20260906170704 35 332 3.2 4.8 0.00 0.00 0.00 47 1017.1
20260906170203 36 324 3.2 4.8 0.00 0.00 0.00 47 1017.2
20260906163703 35 327 1.6 4.8 0.00 0.00 0.00 52 1017.4
20260906163203 35 327 1.6 9.7 0.00 0.00 0.00 50 1017.4
20260906160704 34 265 3.2 9.7 0.00 0.00 0.00 52 1017.5
20260906160203 34 330 4.8 9.7 0.00 0.00 0.00 52 1017.5
20260906153703 33 334 3.2 4.8 0.00 0.00 0.00 55 1017.5
20260906153204 33 301 3.2 4.8 0.00 0.00 0.00 55 1017.4
20260906150704 31 170 1.6 3.2 0.00 0.00 0.00 59 1017.2
20260906150203 31 170 1.6 4.8 0.00 0.00 0.00 57 1017.2
20260906143703 31 155 0.0 1.6 0.00 0.00 0.00 60 1017.2
20260906143203 31 155 0.0 4.8 0.00 0.00 0.00 61 1017.2
20260906140704 30 142 0.0 1.6 0.00 0.00 0.00 62 1017.1
20260906140204 30 142 1.6 4.8 0.00 0.00 0.00 62 1017.1
20260906133703 28 132 0.0 0.0 0.00 0.00 0.00 66 1016.8
20260906133204 27 132 0.0 0.0 0.00 0.00 0.00 68 1016.6
20260906130703 25 132 0.0 0.0 0.00 0.00 0.00 75 1016.5
20260906130204 25 132 0.0 4.8 0.00 0.00 0.00 77 1016.6
20260906123703 23 132 0.0 1.6 0.00 0.00 0.00 80 1016.2
20260906123203 23 132 0.0 0.0 0.00 0.00 0.00 80 1016.1
20260906120704 23 132 0.0 0.0 0.00 0.00 0.00 79 1015.8
20260906120203 23 132 0.0 1.6 0.00 0.00 0.00 79 1015.9
20260906113704 23 132 0.0 0.0 0.00 0.00 0.00 78 1015.7
20260906113204 23 132 0.0 1.6 0.00 0.00 0.00 78 1015.7
20260906110203 24 132 0.0 0.0 0.00 0.00 0.00 77 1015.4
20260906100703 25 132 0.0 1.6 0.00 0.00 0.00 77 1015.3
20260906100204 25 132 0.0 1.6 0.00 0.00 0.00 77 1015.3
20260906093704 25 132 0.0 1.6 0.00 0.00 0.00 76 1015.2
20260906093204 25 132 0.0 3.2 0.00 0.00 0.00 76 1015.2
20260906090704 25 132 0.0 1.6 0.00 0.00 0.00 75 1015.2
20260906083703 25 132 0.0 0.0 0.00 0.00 0.00 73 1014.9
20260906083203 25 132 0.0 0.0 0.00 0.00 0.00 73 1014.8
20260906080703 26 132 0.0 0.0 0.00 0.00 0.00 72 1014.8
20260906080203 26 132 0.0 0.0 0.00 0.00 0.00 72 1014.8
20260906073704 26 132 0.0 1.6 0.00 0.00 0.00 72 1014.7
20260906073204 26 132 0.0 4.8 0.00 0.00 0.00 71 1014.7
20260906070204 26 132 0.0 0.0 0.00 0.00 0.00 71 1014.7
20260906063703 26 132 0.0 0.0 0.00 0.00 0.00 70 1014.9
20260906063204 26 132 0.0 0.0 0.00 0.00 0.00 70 1014.9
20260906060704 27 132 0.0 0.0 0.00 0.00 0.00 69 1015.1
20260906060203 27 132 0.0 0.0 0.00 0.00 0.00 68 1015.0
20260906053703 27 132 0.0 0.0 0.00 0.00 0.00 67 1014.9
20260906053203 27 132 0.0 0.0 0.00 0.00 0.00 67 1015.0
20260906050705 28 132 0.0 0.0 0.00 0.00 0.00 64 1014.8
20260906050203 28 132 0.0 1.6 0.00 0.00 0.00 63 1014.9
20260906043704 30 132 0.0 0.0 0.00 0.00 0.00 60 1014.7
20260906043204 30 132 0.0 3.2 0.00 0.00 0.00 59 1014.6
20260906040703 30 132 1.6 3.2 0.00 0.00 0.00 58 1014.7
20260906040205 30 132 1.6 4.8 0.00 0.00 0.00 58 1014.7
20260906033704 30 132 3.2 4.8 0.00 0.00 0.00 57 1014.7
20260906033204 30 130 1.6 4.8 0.00 0.00 0.00 57 1014.7
20260906030703 31 103 1.6 3.2 0.00 0.00 0.00 57 1014.6
20260906023704 32 104 1.6 3.2 0.00 0.00 0.00 52 1014.3
20260906023204 32 103 1.6 3.2 0.00 0.00 0.00 52 1014.1
20260906020704 32 103 1.6 3.2 0.00 0.00 0.00 50 1013.8
20260906020204 32 103 1.6 4.8 0.00 0.00 0.00 50 1013.7
20260906010704 33 103 0.0 0.0 0.00 0.00 0.00 49 1013.4
20260906010203 34 103 0.0 1.6 0.00 0.00 0.00 48 1013.4
20260906003703 35 103 0.0 3.2 0.00 0.00 0.00 43 1013.2
20260906000704 36 120 3.2 4.8 0.00 0.00 0.00 41 1013.3
20260906000205 36 129 4.8 16.1 0.00 0.00 0.00 40 1013.2
20260905223703 37 155 4.8 9.7 0.00 0.00 0.00 39 1012.8
20260905220705 37 226 3.2 4.8 0.00 0.00 0.00 38 1012.9
20260905220204 37 122 4.8 24.1 0.00 0.00 0.00 39 1012.9
20260905213704 38 149 3.2 4.8 0.00 0.00 0.00 39 1013.2
20260905213204 37 144 8.0 19.3 0.00 0.00 0.00 40 1013.2
20260905210703 37 139 11.3 19.3 0.00 0.00 0.00 39 1013.6
20260905210204 37 136 6.4 16.1 0.00 0.00 0.00 39 1013.7
20260905203203 37 74 6.4 19.3 0.00 0.00 0.00 39 1014.0